Lid_Strength_Index
-1 -1 -1 -2 -2 -2 -2 -2 -2 -1 -2 -1 -1 -1 -1 -1 -1 -2 -2 -2 -1 -1 -1 -2 -1 -1 0 5 5 -1 -1 -1 -0 0 3 5 5 6 8 7 7 8 7 6 6 6 8
-1 -1 -1 -1 -2 -2 -2 -2 -2 -2 -1 -1 -1 -1 -1 -1 -1 -1 -1 -2 -2 -1 -1 -2 -2 -1 2 8 -0 -1 -1 -0 1 1 3 3 5 5 7 7 8 6 6 6 6 6 6
-1 -1 -1 -1 -1 -2 -2 -2 -2 -2 -2 -1 -1 -1 -1 -1 -1 -1 -1 -1 -2 -1 -1 -2 -2 -0 4 5 -1 -1 -1 0 0 1 4 2 3 5 6 8 6 6 9 7 7 7 8
-1 -1 -1 -1 -1 -1 -2 -2 -1 -2 -2 -1 -1 -1 -1 -1 -1 -1 -1 -1 -1 -1 -2 -2 -2 1 6 0 -1 0 -0 1 -0 0 1 2 2 5 6 6 8 10 9 11 7 7 7
-1 -1 -1 -1 -1 -1 -1 -2 -1 -2 -2 -1 -1 -1 -1 -1 -1 -1 -1 -1 -1 -1 -2 -2 1 2 6 0 2 0 0 3 2 1 1 1 3 6 7 10 12 11 15 12 10 7 8
-1 -1 -1 -1 -1 -1 -1 -1 -1 -1 -1 -1 -1 -1 -1 -1 -1 -1 -1 -1 -1 -1 -0 -0 1 5 4 5 2 2 0 1 3 4 5 6 7 10 10 12 17 14 14 12 12 9 9
-1 -1 -1 -1 -1 -1 -1 -1 -1 -1 -1 -1 -1 -1 -1 -1 -1 -1 -0 1 4 5 3 6 6 5 5 2 1 2 1 3 3 6 10 8 11 13 11 10 10 11 12 12 10 8 10
-1 -1 -1 -1 -1 -1 -1 -1 -1 -1 -1 -1 -1 -1 -1 -1 -1 -1 0 4 4 3 8 4 4 4 3 2 6 4 1 6 7 10 8 10 13 9 8 9 11 11 13 13 10 8 9
-1 -1 -1 -1 -1 -1 -1 -1 -1 -1 -1 -1 -1 -1 -1 -1 -1 0 2 3 0 0 8 7 4 5 4 3 6 6 4 5 8 9 10 12 9 7 9 10 13 12 13 13 12 10 9
-1 -1 -1 -1 -1 -1 -1 -1 -1 -1 -1 -1 -1 -1 -1 -1 2 2 3 1 0 0 11 11 8 6 4 4 7 3 3 5 7 10 9 10 7 9 11 12 11 15 10 11 12 13 17
-1 -1 -1 -1 -1 -1 -1 -1 -1 -1 -1 -1 -1 -1 -1 -1 2 4 3 2 2 2 19 9 8 2 4 6 6 6 2 5 9 9 9 11 10 11 12 11 10 13 9 11 11 13 14
-1 -1 -1 -1 -1 -1 -1 -1 -1 -0 -0 -1 -1 -1 -1 1 2 2 2 2 4 13 19 12 8 9 9 7 7 6 6 4 5 8 8 9 6 8 9 9 9 9 11 12 12 14 19
-1 -1 -1 -1 -1 -1 -1 -1 -1 -1 -0 -0 -1 -1 0 0 5 1 2 5 14 17 11 13 12 9 9 10 9 9 10 10 11 14 13 10 10 7 8 10 9 10 13 19 20 20 20
-0 -0 -0 -0 -0 -0 -0 -0 -0 -1 -0 -0 -1 -1 0 1 0 1 4 10 17 14 13 9 10 10 12 10 10 10 11 12 9 9 11 14 15 10 8 9 11 12 12 16 21 20 17
-0 -0 -0 -0 -0 -0 -0 -0 -0 -0 -0 -0 -0 1 2 2 1 2 8 15 14 13 11 11 10 13 12 10 10 10 11 11 9 9 12 13 13 8 8 7 8 11 15 10 14 17 17
-0 -0 0 -0 -0 -0 -0 -0 -0 -0 -0 -0 2 3 4 2 2 4 11 13 14 10 8 9 13 11 14 13 12 11 12 9 9 8 7 9 14 9 9 8 9 11 9 16 16 21 21
0 0 0 0 0 0 0 -0 -0 -0 -0 -0 3 7 3 3 3 8 13 14 12 8 7 9 11 12 11 12 11 12 11 9 8 8 7 9 11 13 9 11 12 13 14 14 14 16 19
0 0 0 0 0 0 0 0 -0 0 -0 1 6 10 3 3 10 11 12 11 9 9 8 9 9 10 11 11 12 11 12 9 6 7 10 9 12 15 13 10 8 9 12 13 17 18 16
1 0 0 0 0 0 0 0 0 -0 -0 4 7 7 2 3 13 12 11 10 9 10 9 9 10 9 8 10 13 11 10 7 7 8 9 9 13 16 15 13 11 12 11 11 13 14 16
0 1 0 0 0 0 0 0 0 -0 -0 3 8 11 9 8 9 11 12 12 12 9 10 10 10 8 10 11 9 12 11 8 7 7 7 7 11 13 16 14 13 15 13 11 13 17 16
0 0 0 0 0 0 0 0 0 -0 -0 2 7 10 10 12 12 11 11 11 12 12 10 9 10 9 10 13 12 12 10 9 8 7 8 9 15 12 11 11 11 12 12 13 14 13 16
0 0 0 0 0 0 0 0 -0 -0 0 6 8 9 9 11 10 11 11 11 13 12 11 11 11 10 9 11 10 12 10 9 10 8 8 8 13 12 14 11 11 13 12 11 11 13 13
0 0 0 0 0 0 0 -0 -0 -0 2 6 8 7 7 10 11 11 12 13 12 10 10 9 9 9 10 9 7 7 7 8 8 9 10 10 12 14 15 12 12 16 13 12 11 10 11
0 0 0 0 -0 -0 -0 -0 -0 0 3 5 7 7 9 13 11 13 11 10 11 11 11 9 8 9 8 5 5 6 7 7 7 8 8 11 12 13 15 14 19 11 8 8 10 10 9
0 -0 -0 0 0 1 1 1 1 2 4 7 8 7 10 13 12 12 11 11 10 10 10 9 8 7 6 7 11 13 14 14 13 9 9 9 11 14 16 15 13 13 11 10 11 11 8
1 1 1 1 1 1 2 2 3 3 4 8 9 7 9 11 12 10 12 10 12 12 11 10 7 6 6 9 12 16 16 16 15 12 9 9 10 13 14 17 19 14 10 8 8 14 7
1 1 1 1 1 1 1 2 3 3 4 7 9 8 8 11 10 10 11 11 10 11 11 11 10 9 7 11 14 15 15 13 15 16 14 13 13 15 15 16 14 11 8 6 15 13 7
-0 0 1 1 2 2 2 2 2 3 4 7 9 8 8 10 10 9 9 11 10 9 11 11 9 10 10 12 12 13 14 12 13 12 12 13 14 15 14 16 17 8 8 11 13 12 10
0 0 1 1 1 2 2 2 2 3 3 5 8 8 7 10 10 8 8 8 9 9 9 10 10 10 8 10 10 11 12 11 12 15 9 13 10 11 12 12 7 9 12 14 15 16 15